Location: C�mpuri de-Sus
(45.9500°N, 22.5500°E)
Time: 06:03:41
(UTC+00:00)

Cosmos 839 Rocket - Pass Details

Date: 24 October 2021
Orbit: 964 x 2088 km, 65.9° (Epoch: 04 December)

Event Time Altitude Azimuth Distance (km) Brightness Sun altitude
Rises 16:57:17 0° 324° (NW) 4,416 7.9 -16.1°
Reaches altitude 10° 17:00:23 10° 324° (NW) 3,284 7.2 -16.6°
Maximum altitude 17:08:00 82° 239° (WSW) 1,107 4.3 -18.0°
Drops below altitude 10° 17:14:19 10° 152° (SSE) 2,748 6.1 -19.1°
Enters shadow 17:15:12 - 152° (SSE) 3,084 6.3 -19.2°
